BTO5107 SCAT-SCEC

Flight info

Callsign BTO5107
Flight time 0h 48m
Altitude 6500
Route D
Aircraft C172/L-VGD/A

Departure

Time 2026-05-04 13:50
Airport Desierto de Atacama Airport (SCAT)

Arrival

Time 2026-05-04 14:38
Airport Pelícano Airport (SCEC)
Time Latitude Longitude Altitude Speed Heading
2026-05-04 13:50 -27.49386 -70.79111 6491 ft 111 kts 182°
2026-05-04 13:50 -27.50191 -70.79158 6502 ft 121 kts 183°
2026-05-04 13:50 -27.51064 -70.79210 6502 ft 127 kts 183°
2026-05-04 13:51 -27.51956 -70.79263 6501 ft 130 kts 183°
2026-05-04 13:51 -27.52860 -70.79317 6500 ft 132 kts 183°
2026-05-04 13:51 -27.53777 -70.79370 6500 ft 132 kts 183°
2026-05-04 13:51 -27.54703 -70.79424 6500 ft 133 kts 183°
2026-05-04 13:52 -27.56559 -70.79532 6500 ft 134 kts 183°
2026-05-04 13:52 -27.57486 -70.79585 6500 ft 134 kts 183°
2026-05-04 13:52 -27.58422 -70.79639 6500 ft 134 kts 183°
2026-05-04 13:53 -27.59353 -70.79694 6500 ft 134 kts 183°
2026-05-04 13:53 -27.60285 -70.79747 6500 ft 134 kts 183°
2026-05-04 13:53 -27.61214 -70.79801 6500 ft 134 kts 183°
2026-05-04 13:54 -27.63077 -70.79909 6500 ft 134 kts 183°
2026-05-04 13:54 -27.64010 -70.79962 6500 ft 134 kts 183°
2026-05-04 13:54 -27.65879 -70.80070 6500 ft 134 kts 183°
2026-05-04 13:55 -27.66809 -70.80125 6500 ft 134 kts 183°
2026-05-04 13:55 -27.68684 -70.80233 6500 ft 134 kts 183°
2026-05-04 13:55 -27.69610 -70.80286 6500 ft 134 kts 183°
2026-05-04 13:56 -27.70544 -70.80341 6500 ft 134 kts 183°
2026-05-04 13:56 -27.71479 -70.80394 6500 ft 134 kts 183°
2026-05-04 13:56 -27.73337 -70.80502 6500 ft 134 kts 183°
2026-05-04 13:57 -27.74271 -70.80556 6500 ft 134 kts 183°
2026-05-04 13:57 -27.75212 -70.80610 6500 ft 134 kts 183°
2026-05-04 13:58 -27.78008 -70.80771 6500 ft 134 kts 183°
2026-05-04 13:58 -27.79871 -70.80879 6500 ft 134 kts 183°
2026-05-04 13:58 -27.80803 -70.80933 6500 ft 134 kts 183°
2026-05-04 13:59 -27.81740 -70.80988 6500 ft 134 kts 183°
2026-05-04 13:59 -27.82669 -70.81042 6500 ft 134 kts 183°
2026-05-04 13:59 -27.84540 -70.81151 6500 ft 134 kts 183°
2026-05-04 14:00 -27.85473 -70.81205 6500 ft 134 kts 183°
2026-05-04 14:00 -27.87340 -70.81313 6500 ft 134 kts 183°
2026-05-04 14:00 -27.88267 -70.81367 6500 ft 134 kts 183°
2026-05-04 14:01 -27.89208 -70.81422 6500 ft 134 kts 183°
2026-05-04 14:01 -27.90142 -70.81475 6501 ft 134 kts 185°
2026-05-04 14:01 -27.91988 -70.81579 6500 ft 132 kts 185°
2026-05-04 14:02 -27.92901 -70.81633 6500 ft 132 kts 185°
2026-05-04 14:02 -27.93820 -70.81688 6500 ft 132 kts 185°
2026-05-04 14:02 -27.94747 -70.81737 6491 ft 133 kts 185°
2026-05-04 14:02 -27.95662 -70.81780 6487 ft 132 kts 185°
2026-05-04 14:03 -27.96579 -70.81822 6487 ft 132 kts 185°
2026-05-04 14:03 -27.97506 -70.81867 6481 ft 132 kts 185°
2026-05-04 14:03 -27.98430 -70.81918 6480 ft 132 kts 185°
2026-05-04 14:03 -27.99343 -70.81979 6477 ft 132 kts 186°
2026-05-04 14:04 -28.01168 -70.82149 6472 ft 132 kts 188°
2026-05-04 14:04 -28.02075 -70.82273 6468 ft 132 kts 190°
2026-05-04 14:04 -28.02985 -70.82435 6466 ft 131 kts 193°
2026-05-04 14:05 -28.04758 -70.82893 6480 ft 129 kts 198°
2026-05-04 14:05 -28.05619 -70.83181 6484 ft 130 kts 200°
2026-05-04 14:05 -28.06479 -70.83511 6479 ft 130 kts 202°
2026-05-04 14:06 -28.07320 -70.83855 6484 ft 129 kts 203°
2026-05-04 14:06 -28.08159 -70.84243 6475 ft 130 kts 206°
2026-05-04 14:06 -28.08958 -70.84689 6483 ft 128 kts 211°
2026-05-04 14:06 -28.09724 -70.85228 6475 ft 128 kts 217°
2026-05-04 14:07 -28.10409 -70.85865 6474 ft 127 kts 225°
2026-05-04 14:07 -28.10983 -70.86613 6469 ft 127 kts 236°
2026-05-04 14:07 -28.11407 -70.87486 6459 ft 126 kts 249°
2026-05-04 14:07 -28.11725 -70.88402 6479 ft 125 kts 234°
2026-05-04 14:08 -28.12468 -70.88871 6494 ft 128 kts 190°
2026-05-04 14:08 -28.13358 -70.88694 6499 ft 131 kts 161°
2026-05-04 14:08 -28.14179 -70.88258 6500 ft 132 kts 156°
2026-05-04 14:08 -28.15008 -70.87780 6500 ft 133 kts 155°
2026-05-04 14:09 -28.16649 -70.86829 6500 ft 133 kts 155°
2026-05-04 14:09 -28.17473 -70.86352 6500 ft 133 kts 155°
2026-05-04 14:10 -28.19132 -70.85390 6500 ft 134 kts 155°
2026-05-04 14:10 -28.19964 -70.84907 6500 ft 134 kts 155°
2026-05-04 14:10 -28.20804 -70.84459 6499 ft 133 kts 160°
2026-05-04 14:10 -28.21680 -70.84139 6499 ft 133 kts 168°
2026-05-04 14:11 -28.22585 -70.83929 6499 ft 132 kts 173°
2026-05-04 14:11 -28.24419 -70.83733 6500 ft 132 kts 180°
2026-05-04 14:11 -28.25325 -70.83704 6500 ft 132 kts 181°
2026-05-04 14:12 -28.26247 -70.83700 6500 ft 132 kts 183°
2026-05-04 14:12 -28.27164 -70.83715 6500 ft 132 kts 184°
2026-05-04 14:12 -28.28986 -70.83777 6500 ft 131 kts 185°
2026-05-04 14:13 -28.29897 -70.83818 6500 ft 131 kts 185°
2026-05-04 14:13 -28.30823 -70.83864 6500 ft 131 kts 185°
2026-05-04 14:13 -28.31725 -70.83911 6500 ft 131 kts 185°
2026-05-04 14:13 -28.32646 -70.83961 6500 ft 131 kts 185°
2026-05-04 14:14 -28.33551 -70.84012 6500 ft 131 kts 185°
2026-05-04 14:14 -28.35383 -70.84116 6500 ft 131 kts 185°
2026-05-04 14:14 -28.36297 -70.84169 6500 ft 131 kts 185°
2026-05-04 14:15 -28.38115 -70.84274 6500 ft 131 kts 185°
2026-05-04 14:15 -28.39937 -70.84381 6500 ft 131 kts 185°
2026-05-04 14:16 -28.41766 -70.84488 6500 ft 131 kts 185°
2026-05-04 14:16 -28.42677 -70.84541 6500 ft 131 kts 185°
2026-05-04 14:17 -28.44495 -70.84648 6500 ft 131 kts 185°
2026-05-04 14:17 -28.45404 -70.84701 6500 ft 131 kts 185°
2026-05-04 14:17 -28.47227 -70.84808 6500 ft 131 kts 185°
2026-05-04 14:18 -28.48140 -70.84862 6500 ft 131 kts 185°
2026-05-04 14:18 -28.49958 -70.84969 6500 ft 131 kts 185°
2026-05-04 14:19 -28.51775 -70.85075 6500 ft 131 kts 185°
2026-05-04 14:19 -28.52684 -70.85129 6500 ft 131 kts 185°
2026-05-04 14:19 -28.53600 -70.85182 6500 ft 131 kts 185°
2026-05-04 14:19 -28.54515 -70.85236 6500 ft 131 kts 185°
2026-05-04 14:20 -28.55424 -70.85290 6500 ft 131 kts 185°
2026-05-04 14:20 -28.56325 -70.85342 6500 ft 131 kts 185°
2026-05-04 14:20 -28.57242 -70.85397 6500 ft 131 kts 185°
2026-05-04 14:21 -28.59059 -70.85503 6500 ft 131 kts 185°
2026-05-04 14:21 -28.59962 -70.85556 6500 ft 131 kts 185°
2026-05-04 14:21 -28.60883 -70.85610 6500 ft 131 kts 185°
2026-05-04 14:21 -28.61783 -70.85663 6500 ft 131 kts 185°
2026-05-04 14:22 -28.62700 -70.85717 6500 ft 131 kts 185°
2026-05-04 14:22 -28.63608 -70.85726 6499 ft 132 kts 175°
2026-05-04 14:22 -28.64511 -70.85535 6500 ft 132 kts 171°
2026-05-04 14:22 -28.65415 -70.85319 6500 ft 132 kts 171°
2026-05-04 14:23 -28.67209 -70.84888 6500 ft 133 kts 171°
2026-05-04 14:23 -28.68112 -70.84672 6500 ft 133 kts 171°
2026-05-04 14:23 -28.69017 -70.84454 6500 ft 133 kts 171°
2026-05-04 14:24 -28.69924 -70.84237 6500 ft 133 kts 171°
2026-05-04 14:24 -28.70823 -70.84022 6500 ft 133 kts 171°
2026-05-04 14:24 -28.71733 -70.83804 6500 ft 133 kts 171°
2026-05-04 14:24 -28.72633 -70.83588 6500 ft 133 kts 171°
2026-05-04 14:25 -28.73544 -70.83371 6500 ft 133 kts 171°
2026-05-04 14:25 -28.75348 -70.82941 6500 ft 133 kts 171°
2026-05-04 14:25 -28.76253 -70.82725 6500 ft 133 kts 171°
2026-05-04 14:26 -28.77170 -70.82507 6500 ft 133 kts 171°
2026-05-04 14:26 -28.78077 -70.82292 6500 ft 133 kts 171°
2026-05-04 14:26 -28.78980 -70.82078 6500 ft 133 kts 171°
2026-05-04 14:26 -28.79890 -70.81862 6500 ft 133 kts 171°
2026-05-04 14:27 -28.80791 -70.81649 6500 ft 133 kts 171°
2026-05-04 14:27 -28.81702 -70.81433 6500 ft 134 kts 171°
2026-05-04 14:27 -28.82615 -70.81218 6500 ft 134 kts 171°
2026-05-04 14:27 -28.83528 -70.81003 6500 ft 134 kts 171°
2026-05-04 14:28 -28.84433 -70.80789 6500 ft 134 kts 171°
2026-05-04 14:28 -28.85351 -70.80573 6500 ft 134 kts 171°
2026-05-04 14:28 -28.86256 -70.80360 6500 ft 134 kts 171°
2026-05-04 14:28 -28.87170 -70.80146 6500 ft 134 kts 171°
2026-05-04 14:29 -28.88999 -70.79717 6500 ft 134 kts 171°
2026-05-04 14:29 -28.90826 -70.79290 6500 ft 134 kts 171°
2026-05-04 14:30 -28.91732 -70.79078 6500 ft 134 kts 171°
2026-05-04 14:30 -28.92655 -70.78878 6499 ft 134 kts 175°
2026-05-04 14:30 -28.94499 -70.78710 6499 ft 133 kts 184°
2026-05-04 14:31 -28.95403 -70.78861 6499 ft 131 kts 196°
2026-05-04 14:31 -28.97122 -70.79565 6500 ft 130 kts 206°
2026-05-04 14:32 -28.98772 -70.80408 6421 ft 129 kts 207°
2026-05-04 14:32 -28.99579 -70.80835 6288 ft 127 kts 208°
2026-05-04 14:32 -29.00387 -70.81265 6153 ft 127 kts 208°
2026-05-04 14:32 -29.01135 -70.81662 6056 ft 118 kts 208°
2026-05-04 14:33 -29.01881 -70.82059 5915 ft 118 kts 208°
2026-05-04 14:33 -29.02625 -70.82456 5778 ft 118 kts 208°
2026-05-04 14:33 -29.03373 -70.82855 5643 ft 118 kts 208°
2026-05-04 14:33 -29.04113 -70.83250 5510 ft 117 kts 208°
2026-05-04 14:34 -29.04844 -70.83640 5380 ft 116 kts 208°
2026-05-04 14:34 -29.05576 -70.84032 5250 ft 116 kts 208°
2026-05-04 14:34 -29.06268 -70.84399 5204 ft 95 kts 208°
2026-05-04 14:34 -29.06838 -70.84703 5064 ft 87 kts 209°
2026-05-04 14:35 -29.07377 -70.84992 4953 ft 85 kts 209°
2026-05-04 14:35 -29.07908 -70.85277 4850 ft 84 kts 209°
2026-05-04 14:35 -29.08435 -70.85560 4752 ft 83 kts 209°
2026-05-04 14:35 -29.08960 -70.85841 4657 ft 83 kts 209°
2026-05-04 14:36 -29.09478 -70.86120 4564 ft 83 kts 210°
2026-05-04 14:36 -29.09999 -70.86400 4471 ft 83 kts 210°
2026-05-04 14:36 -29.10519 -70.86679 4369 ft 82 kts 210°
2026-05-04 14:36 -29.11043 -70.86961 4271 ft 82 kts 210°
2026-05-04 14:37 -29.11552 -70.87234 4203 ft 79 kts 210°
2026-05-04 14:37 -29.12045 -70.87486 4186 ft 76 kts 206°
2026-05-04 14:37 -29.12533 -70.87705 4154 ft 73 kts 213°
2026-05-04 14:37 -29.12957 -70.87972 4133 ft 69 kts 217°
2026-05-04 14:38 -29.13394 -70.88204 4043 ft 65 kts 213°
2026-05-04 14:38 -29.13768 -70.88415 3825 ft 57 kts 210°
2026-05-04 14:38 -29.14085 -70.88578 3682 ft 40 kts 211°
2026-05-04 14:38 -29.14232 -70.88652 3682 ft 7 kts 168°
2026-05-04 14:39 -29.14307 -70.88602 3682 ft 10 kts 162°
2026-05-04 14:39 -29.14328 -70.88604 3682 ft 0 kts 194°